Regional Weather Roundup
Issued by NWS

Home | Current Version | Previous Version | Graphics & Text | Print | Product List | Glossary On
Versions: 1 2 3 4 5 6 7 8 9 10 11 12 13 14 15 16 17 18 19 20 21 22 23 24 25 26 27 28 29 30 31 32 33 34 35 36 37 38 39 40 41 42 43 44 45 46 47 48 49 50
000
ASUS43 KOAX 290310
RWRNE

WEATHER ROUNDUP FOR NEBRASKA
NATIONAL WEATHER SERVICE OMAHA NE
900 PM CST SUN DEC 28 2014

NOTES: SATELLITE DATA IS BEING USED TO AUGMENT CLOUD COVER ABOVE
       12000 FEET.
       "FAIR" INDICATES FEW OR NO CLOUDS BELOW 12,000 FEET WITH NO
       SIGNIFICANT WEATHER AND/OR OBSTRUCTIONS TO VISIBILITY.

  * THESE STATIONS DO NOT REPORT WEATHER SUCH AS RAIN...SNOW OR FOG.

NEZ001>004-019>022-054>056-290400-
NEBRASKA PANHANDLE

CITY           SKY/WX    TMP DP  RH WIND       PRES   REMARKS
SCOTTSBLUFF    CLOUDY    20  14  77 NE6       29.96R WCI  12
ALLIANCE       MOCLDY    17  16  95 N3        29.96R
CHADRON        LGT SNOW  20  16  84 N14       30.03R FOG     WCI   7
KIMBALL        CLOUDY    26  18  73 N7        29.90S WCI  18
SIDNEY         PTCLDY    14   6  70 NW9       29.94S WCI   2
$$

NEZ057>060-069>072-079>082-290400-
SOUTHWEST NEBRASKA

CITY           SKY/WX    TMP DP  RH WIND       PRES   REMARKS
NORTH PLATTE   CLOUDY    19  13  77 E7        30.04R WCI  10
IMPERIAL       MOCLDY    14  10  84 CALM      30.00R
LEXINGTON      MOCLDY    15  12  90 NE3       30.08S
MCCOOK         PTCLDY    16  12  84 E3        30.03F
OGALLALA       CLOUDY     9   6  89 CALM      30.01R
$$

NEZ005>010-023>029-035>040-094-290400-
NORTH CENTRAL NEBRASKA

CITY           SKY/WX    TMP DP  RH WIND       PRES   REMARKS
VALENTINE      LGT SNOW  19  16  88 E8        30.11S VSB 3/4 WCI   9
AINSWORTH      LGT SNOW  18  16  90 E8        30.10S WCI   8
BROKEN BOW     CLOUDY    20  14  77 E5        30.08R WCI  13
O`NEILL        LGT SNOW  18  16  95 NE8       30.16R WCI   7
ORD            MOCLDY    20  14  77 E6        30.12R WCI  12
THEDFORD       CLOUDY    22  18  84 CALM      30.07R
$$

NEZ041-046>049-061>064-073>077-083>087-290400-
SOUTH CENTRAL NEBRASKA

CITY           SKY/WX    TMP DP  RH WIND       PRES   REMARKS
GRAND ISLAND   CLOUDY    22  17  81 NE6       30.13R WCI  14
AURORA         CLOUDY    24  19  83 NE5       30.12R WCI  18
HASTINGS       CLOUDY    23  18  81 NE6       30.09R WCI  16
HEBRON         CLOUDY    29  23  78 CALM      30.12S
HOLDREGE       MOCLDY    20  15  82 N3        30.08R
KEARNEY *      CLOUDY    21  16  79 N6        30.10R WCI  14
YORK           CLOUDY    25  19  80 NE10      30.12S WCI  15
$$

NEZ011>018-030>034-042>045-290400-
NORTHEAST NEBRASKA

CITY           SKY/WX    TMP DP  RH WIND       PRES   REMARKS
NORFOLK        MOCLDY    20  15  81 NE8       30.16S WCI  10
ALBION         MOCLDY    20  15  81 NE7       30.14R WCI  11
BLAIR          CLOUDY    24  20  85 N10       30.15R WCI  14
COLUMBUS *     MOCLDY    19  12  73 E5        30.17R WCI  13
FREMONT        MOCLDY    22  18  85 CALM      30.18R
TEKAMAH        CLOUDY    23  19  85 N9        30.19S WCI  13
WAYNE          CLOUDY    20  17  86 NE9       30.20R WCI  10
$$

NEZ050>053-065>068-078-088>093-290400-
SOUTHEAST NEBRASKA

CITY           SKY/WX    TMP DP  RH WIND       PRES   REMARKS
LINCOLN        CLOUDY    27  22  81 N9        30.17R WCI  18
OMAHA EPPLEY   CLOUDY    26  21  81 N9        30.20R WCI  17
BEATRICE       CLOUDY    31  26  80 CALM      30.14R
FALLS CITY     CLOUDY    33  21  61 S7        30.16R WCI  27
NEBRASKA CITY  CLOUDY    31  24  77 NE5       30.16R WCI  26
PLATTSMOUTH    CLOUDY    29  23  78 N5        30.16S WCI  24
$$

NEZ044-045-051>053-067-290400-
OMAHA AREA

CITY           SKY/WX    TMP DP  RH WIND       PRES   REMARKS
OMAHA EPPLEY   CLOUDY    26  21  81 N9        30.20R WCI  17
BLAIR          CLOUDY    24  20  85 N10       30.15R WCI  14
FREMONT        MOCLDY    22  18  85 CALM      30.18R
MILLARD        CLOUDY    28  20  71 CALM      30.17S
OFFUTT AFB     CLOUDY    28  22  78 N3        30.17R
PLATTSMOUTH    CLOUDY    29  23  78 N5        30.16S WCI  24
WAHOO          FAIR      23  19  83 N6        30.17R WCI  16
$$



USA.gov is the U.S. government's official web portal to all federal, state and local government web resources and services.